RH
82 82 81 80 69 48 47 42 38 47 49 47 46 44 42 33 28 18 11 10 12 9 8 8 12 16 20 23 24 26 26 28 47 94 98 96 95 96
84 74 61 61 39 39 44 44 44 38 37 39 40 37 31 29 18 12 12 10 10 8 9 13 17 24 27 28 27 29 30 30 36 76 96 98 97 95
46 36 33 43 40 41 42 42 43 39 29 14 20 24 29 16 14 13 13 11 8 10 12 17 23 30 30 29 30 30 30 31 33 36 60 96 98 95
38 43 48 42 29 32 38 40 27 10 9 10 16 15 13 14 13 12 9 8 10 12 16 20 28 30 31 31 31 30 33 34 36 42 84 98 98 99
48 36 24 15 11 9 9 9 9 10 9 8 9 12 13 12 10 10 10 9 12 13 13 21 30 30 29 30 31 34 37 40 45 57 98 100 100 99
22 15 12 11 10 10 10 11 8 7 8 10 10 11 10 11 10 10 10 11 11 12 15 18 22 24 27 30 36 37 40 41 45 90 98 98 97 98
17 14 12 11 12 12 9 8 10 12 12 11 12 12 12 12 14 14 15 14 14 14 15 18 19 20 27 35 38 37 41 43 77 100 98 99 100 100
12 12 12 12 12 11 13 14 15 16 15 15 14 14 15 17 19 22 22 20 18 24 20 12 21 22 28 33 36 38 44 59 100 99 98 97 100 100
13 13 14 15 16 17 19 20 19 18 17 16 17 19 20 23 26 27 30 28 26 27 38 23 27 28 29 32 35 40 77 98 81 76 72 59 92 100
19 19 16 15 18 19 19 20 20 19 18 18 19 21 26 31 33 32 35 31 26 32 51 62 51 47 34 35 37 51 88 60 61 61 53 47 67 99
18 17 18 18 19 20 21 21 20 20 18 18 21 29 35 39 40 39 38 38 38 31 44 62 76 85 94 57 49 56 62 60 57 52 50 51 76 100
19 18 19 20 20 22 22 22 20 20 19 23 30 34 35 34 36 37 43 44 56 60 60 89 98 100 100 84 75 59 58 56 55 53 58 58 67 73
17 19 20 22 24 23 23 21 21 21 22 26 28 31 32 32 36 41 50 56 59 69 74 100 100 99 100 100 100 72 65 60 59 57 59 64 61 67
21 25 25 26 26 25 25 24 24 24 26 29 32 32 36 40 39 42 50 53 61 72 77 86 89 90 96 95 99 78 67 62 66 62 68 69 65 62
27 27 28 29 30 31 29 28 27 28 28 28 33 41 42 41 44 42 46 60 55 60 70 76 84 89 92 92 88 83 73 67 64 70 71 72 69 63
29 32 32 32 34 34 33 31 31 30 28 32 33 36 44 44 46 50 50 54 50 48 60 74 81 85 84 81 86 77 71 82 70 71 77 71 66 62
32 31 30 33 36 38 37 37 38 33 29 29 38 44 51 53 51 50 50 56 65 67 65 68 75 79 81 81 77 70 74 71 70 76 73 67 63 64
30 29 31 36 40 42 43 43 44 42 35 32 35 42 49 52 54 53 58 70 75 73 71 73 75 80 80 67 67 83 73 73 75 74 70 74 66 63
29 31 35 38 42 45 47 48 49 50 47 34 33 41 50 58 67 69 73 76 73 72 73 76 80 87 95 93 73 74 92 79 79 70 69 71 80 64
31 31 34 37 38 45 51 50 50 52 54 43 34 40 58 74 79 83 79 73 71 70 80 81 80 88 95 97 100 64 68 76 74 76 70 72 68 64
29 30 29 29 32 47 54 52 48 51 57 52 38 47 72 90 89 87 81 73 79 82 79 78 81 88 92 94 85 72 61 65 72 80 85 100 100 100
27 26 26 26 30 46 58 59 46 49 59 58 44 49 77 89 88 88 88 81 77 80 82 86 82 83 80 86 83 80 71 65 61 63 62 73 100 100
24 23 24 26 30 39 55 61 50 50 61 61 45 48 69 84 87 89 90 80 80 86 88 92 90 82 78 81 85 86 80 76 78 77 58 63 75 75
Wind_Speed
22 24 25 27 25 20 22 20 22 20 21 21 16 17 16 16 14 17 16 17 16 17 18 18 19 19 19 21 22 23 23 23 21 19 19 19 19 21
25 25 23 26 21 17 21 20 20 14 12 17 18 15 15 13 16 16 15 17 17 18 18 18 19 21 20 22 23 23 24 23 23 20 19 20 19 20
24 22 20 22 18 19 19 21 21 15 11 11 13 14 12 13 14 14 15 16 18 18 18 19 19 19 21 23 23 23 24 24 23 23 22 19 20 20
22 20 19 19 18 16 17 16 13 12 10 6 9 10 11 11 12 12 14 16 17 18 18 19 18 20 21 23 23 23 23 23 23 23 20 20 20 20
20 20 19 17 16 17 15 14 11 8 5 5 6 7 8 8 10 12 13 15 16 17 17 16 18 20 22 23 23 23 23 22 22 23 19 18 17 18
22 20 17 15 14 14 14 12 9 7 6 4 2 3 6 9 12 13 13 15 17 18 15 17 20 21 22 21 21 24 23 23 24 17 12 15 16 18
22 18 17 15 13 12 10 11 9 8 5 2 2 5 8 11 13 15 18 18 19 16 16 23 22 23 23 20 23 25 24 23 19 12 14 16 19 21
20 19 18 15 12 10 10 10 9 7 3 3 6 8 10 12 14 16 19 22 24 23 27 21 24 25 23 22 26 26 23 18 9 10 19 26 26 22
18 18 15 14 11 8 8 9 7 4 5 8 9 10 11 14 17 18 20 21 24 26 29 28 24 23 23 23 23 22 11 6 14 20 25 28 25 24
16 15 13 12 10 7 8 7 4 5 8 10 12 12 14 16 19 21 21 23 24 25 24 22 25 27 29 21 18 16 11 16 28 23 24 27 27 24
16 14 12 9 7 6 4 3 4 8 11 13 13 14 16 17 19 20 21 24 26 26 22 25 23 28 25 21 7 9 19 30 24 23 24 25 25 22
16 12 10 7 6 4 5 6 6 8 10 12 13 15 18 18 19 20 21 21 22 23 18 25 21 20 18 16 17 25 27 26 25 24 23 21 18 24
12 12 9 6 4 6 5 5 7 9 11 13 15 17 18 19 19 18 18 20 21 22 23 20 24 22 18 27 24 31 29 30 28 24 18 17 25 22
12 10 7 5 5 5 5 7 10 12 13 14 16 18 19 19 19 18 18 20 20 22 23 23 24 25 26 32 30 31 33 30 28 21 23 25 24 23
11 9 6 5 4 5 8 10 12 13 14 16 17 18 20 21 21 20 19 18 19 19 19 19 21 23 24 27 33 36 35 32 21 28 25 25 26 25
10 8 5 4 5 7 9 11 13 15 16 17 19 20 21 22 22 21 22 22 25 22 18 19 21 22 26 27 31 34 28 27 30 27 29 29 27 26
8 5 3 3 5 7 10 12 14 16 17 19 21 22 23 23 23 23 23 23 24 27 26 21 20 22 23 26 32 29 26 29 28 30 32 34 34 31
5 3 1 2 5 8 11 12 15 17 19 21 22 23 24 24 25 23 22 23 25 26 26 24 24 26 29 30 28 30 31 31 31 30 31 36 39 33
5 3 3 4 6 10 14 15 16 18 21 21 22 23 24 24 24 23 23 24 26 27 25 23 23 25 31 35 35 29 31 34 32 33 31 32 36 34
6 6 7 8 10 13 16 17 17 20 23 24 23 24 24 24 23 24 25 26 27 28 28 26 24 24 28 31 35 37 29 32 31 33 34 33 31 30
9 9 10 12 13 15 18 18 20 22 25 27 26 25 23 23 24 25 26 25 25 26 28 27 25 23 26 30 33 35 35 30 29 31 34 33 34 32
11 13 14 15 16 17 20 21 23 24 26 28 28 25 23 24 25 26 26 26 26 27 29 28 25 25 26 30 35 36 37 35 29 28 26 29 29 31
14 15 15 17 19 20 21 23 25 25 27 30 29 28 26 26 25 26 27 25 26 28 27 29 28 26 29 32 34 39 41 41 41 39 35 30 30 30
Wind_Direction
212 218 221 228 220 227 242 252 236 213 216 220 229 240 251 268 282 295 301 308 307 311 312 314 316 316 315 316 318 317 314 310 310 313 312 310 312 308
213 217 223 232 221 227 230 229 227 216 207 225 235 245 255 268 285 295 307 304 308 311 316 317 315 315 315 315 315 314 311 312 313 310 308 307 307 307
214 220 220 230 226 216 213 212 209 212 234 229 234 237 249 272 285 295 297 307 315 317 319 316 314 311 312 311 312 312 311 312 310 307 306 307 308 305
209 206 207 207 190 183 185 191 197 200 204 214 218 235 251 270 282 297 308 315 319 319 318 313 310 308 310 310 312 312 312 312 309 307 307 305 303 300
193 185 180 177 175 173 170 176 172 173 167 189 221 239 260 286 301 312 319 321 318 316 318 310 310 311 311 313 314 310 311 310 306 303 304 302 303 300
175 169 164 166 173 163 169 153 147 128 126 140 197 265 304 308 318 318 323 324 325 326 324 316 318 313 309 311 310 309 314 308 303 303 300 307 298 295
160 158 159 159 160 158 146 121 112 94 92 68 350 338 326 325 320 327 327 329 328 327 325 323 324 317 318 315 313 313 314 310 305 288 285 306 310 304
158 158 156 157 153 150 120 101 92 75 44 18 3 342 330 326 326 328 331 334 336 329 322 324 322 319 316 317 315 313 311 310 312 281 274 281 306 304
155 154 152 153 145 135 122 97 79 60 20 6 351 345 335 328 329 333 332 330 328 325 321 323 325 319 316 317 310 307 313 301 302 293 290 297 303 297
147 149 148 144 141 115 82 71 60 21 7 3 351 342 336 332 330 332 328 327 326 325 331 320 328 323 324 331 311 298 265 296 318 307 303 302 302 300
149 143 144 143 114 85 92 78 34 17 4 353 349 344 338 331 327 326 324 328 328 331 334 325 325 324 324 341 304 321 297 306 311 313 311 307 305 305
152 139 140 141 134 131 70 43 16 7 357 351 345 341 336 331 325 324 324 326 323 327 333 328 325 329 326 323 303 327 322 323 322 320 317 311 315 316
147 155 148 146 109 63 44 17 3 357 355 350 345 340 334 329 327 325 323 322 320 314 327 321 315 320 304 303 311 325 327 330 326 323 322 314 315 315
153 152 143 113 77 45 14 1 360 357 352 344 339 339 334 331 334 329 323 321 318 319 322 318 310 318 311 312 311 322 327 330 328 326 323 319 319 316
153 141 124 93 52 22 8 360 357 349 342 339 335 334 335 333 328 327 325 321 324 325 319 317 315 314 312 312 314 319 327 326 326 324 323 319 319 319
148 133 113 79 36 15 3 354 348 342 337 331 332 333 332 329 329 330 329 327 323 329 331 324 318 314 312 312 312 317 323 314 323 324 322 320 320 322
145 138 117 50 21 3 352 347 343 338 332 329 331 331 327 327 329 327 326 323 323 328 330 330 318 309 307 309 312 320 318 319 324 325 324 322 319 317
165 166 163 356 353 350 345 337 337 336 334 332 328 324 324 325 324 324 322 321 320 324 325 326 323 320 319 318 322 321 323 321 323 322 321 318 316 315
212 235 274 301 325 337 337 332 333 336 331 327 325 323 324 323 319 319 321 319 319 319 321 324 327 326 320 317 320 322 319 322 317 316 317 319 315 317
246 261 281 302 315 326 326 322 324 327 329 327 328 327 323 318 317 318 319 318 317 320 323 327 325 321 315 315 313 320 326 318 318 316 316 314 315 320
266 282 291 295 301 311 318 321 320 322 326 326 325 321 319 314 315 316 315 315 315 315 314 320 324 318 314 310 309 316 320 323 320 319 318 307 306 310
277 281 287 293 297 301 316 321 319 318 320 320 318 320 320 315 313 313 315 314 316 316 316 320 324 322 320 319 317 318 324 329 331 326 318 316 304 293
277 283 291 297 299 299 311 315 314 314 315 318 317 318 316 313 312 312 313 313 314 315 320 321 322 321 320 321 321 322 324 326 327 326 323 327 318 313